| time (UTC) | temp F | wind direction | speed MPH | gust MPH | rain 1hr in | rain 24hr in | rain mn in | humidity % | barometer mb |
| 20260902090305 | 68 | 123 | 6.0 | 12.0 | 0.00 | 0.00 | 0.00 | 66 | 1011.6 |
| 20260902085805 | 68 | 124 | 8.0 | 12.0 | 0.00 | 0.00 | 0.00 | 66 | 1011.6 |
| 20260902084804 | 69 | 126 | 7.0 | 12.0 | 0.00 | 0.00 | 0.00 | 66 | 1011.6 |
| 20260902084304 | 69 | 132 | 7.0 | 12.0 | 0.00 | 0.00 | 0.00 | 66 | 1011.7 |
| 20260902083805 | 69 | 139 | 7.0 | 13.0 | 0.00 | 0.00 | 0.00 | 65 | 1011.7 |
| 20260902083304 | 69 | 138 | 7.0 | 12.0 | 0.00 | 0.00 | 0.00 | 65 | 1011.7 |
| 20260902082805 | 69 | 128 | 8.0 | 14.0 | 0.00 | 0.00 | 0.00 | 65 | 1011.9 |
| 20260902080305 | 69 | 137 | 6.0 | 9.0 | 0.00 | 0.00 | 0.00 | 64 | 1011.6 |
| 20260902075805 | 69 | 138 | 6.0 | 10.0 | 0.00 | 0.00 | 0.00 | 65 | 1011.6 |
| 20260902075306 | 69 | 135 | 5.0 | 9.0 | 0.00 | 0.00 | 0.00 | 65 | 1011.6 |
| 20260902074805 | 70 | 144 | 6.0 | 10.0 | 0.00 | 0.00 | 0.00 | 66 | 1011.6 |
| 20260902074304 | 70 | 144 | 7.0 | 10.0 | 0.00 | 0.00 | 0.00 | 65 | 1011.6 |
| 20260902073805 | 70 | 140 | 5.0 | 12.0 | 0.00 | 0.00 | 0.00 | 65 | 1011.6 |
| 20260902073304 | 70 | 146 | 6.0 | 13.0 | 0.00 | 0.00 | 0.00 | 65 | 1011.7 |
| 20260902072804 | 70 | 140 | 6.0 | 13.0 | 0.00 | 0.00 | 0.00 | 65 | 1011.6 |
| 20260902072309 | 70 | 135 | 5.0 | 9.0 | 0.00 | 0.00 | 0.00 | 66 | 1011.6 |
| 20260902071304 | 70 | 145 | 6.0 | 10.0 | 0.00 | 0.00 | 0.00 | 65 | 1011.5 |
| 20260902070805 | 70 | 140 | 6.0 | 10.0 | 0.00 | 0.00 | 0.00 | 64 | 1011.5 |
| 20260902070305 | 70 | 141 | 5.0 | 9.0 | 0.00 | 0.00 | 0.00 | 64 | 1011.5 |
| 20260902065804 | 71 | 143 | 7.0 | 10.0 | 0.00 | 0.00 | 0.00 | 63 | 1011.5 |
| 20260902065306 | 71 | 134 | 6.0 | 9.0 | 0.00 | 0.00 | 0.00 | 62 | 1011.5 |
| 20260902064304 | 71 | 163 | 5.0 | 7.0 | 0.00 | 0.00 | 0.00 | 57 | 1011.4 |
| 20260902063804 | 71 | 145 | 5.0 | 12.0 | 0.00 | 0.00 | 0.00 | 56 | 1011.3 |
| 20260902062804 | 72 | 135 | 5.0 | 8.0 | 0.00 | 0.00 | 0.00 | 55 | 1011.3 |
| 20260902062306 | 72 | 152 | 5.0 | 8.0 | 0.00 | 0.00 | 0.00 | 54 | 1011.3 |
| 20260902061805 | 72 | 158 | 6.0 | 10.0 | 0.00 | 0.00 | 0.00 | 55 | 1011.3 |
| 20260902060805 | 72 | 150 | 4.0 | 9.0 | 0.00 | 0.00 | 0.00 | 55 | 1011.2 |
| 20260902060305 | 73 | 157 | 5.0 | 8.0 | 0.00 | 0.00 | 0.00 | 55 | 1011.2 |
| 20260902055805 | 73 | 148 | 5.0 | 8.0 | 0.00 | 0.00 | 0.00 | 55 | 1011.4 |
| 20260902054805 | 73 | 159 | 5.0 | 9.0 | 0.00 | 0.00 | 0.00 | 53 | 1011.4 |
| 20260902054305 | 73 | 177 | 5.0 | 8.0 | 0.00 | 0.00 | 0.00 | 52 | 1011.4 |
| 20260902053805 | 73 | 181 | 6.0 | 13.0 | 0.00 | 0.00 | 0.00 | 51 | 1011.4 |
| 20260902053304 | 73 | 169 | 7.0 | 12.0 | 0.00 | 0.00 | 0.00 | 52 | 1011.4 |
| 20260902052804 | 73 | 166 | 7.0 | 13.0 | 0.00 | 0.00 | 0.00 | 51 | 1011.4 |
| 20260902052306 | 73 | 160 | 7.0 | 14.0 | 0.00 | 0.00 | 0.00 | 51 | 1011.5 |
| 20260902051305 | 73 | 165 | 9.0 | 13.0 | 0.00 | 0.00 | 0.00 | 52 | 1011.3 |
| 20260902050804 | 72 | 152 | 5.0 | 8.0 | 0.00 | 0.00 | 0.00 | 54 | 1011.3 |
| 20260902050304 | 72 | 170 | 5.0 | 10.0 | 0.00 | 0.00 | 0.00 | 55 | 1011.3 |
| 20260902045804 | 72 | 158 | 5.0 | 8.0 | 0.00 | 0.00 | 0.00 | 56 | 1011.3 |
| 20260902045306 | 72 | 155 | 4.0 | 7.0 | 0.00 | 0.00 | 0.00 | 57 | 1011.3 |
| 20260902044804 | 73 | 163 | 3.0 | 7.0 | 0.00 | 0.00 | 0.00 | 56 | 1011.2 |
| 20260902043805 | 73 | 149 | 5.0 | 7.0 | 0.00 | 0.00 | 0.00 | 54 | 1011.1 |
| 20260902042804 | 73 | 141 | 5.0 | 10.0 | 0.00 | 0.00 | 0.00 | 54 | 1011.1 |
| 20260902042308 | 73 | 155 | 3.0 | 7.0 | 0.00 | 0.00 | 0.00 | 54 | 1011.1 |
| 20260902041805 | 73 | 150 | 5.0 | 7.0 | 0.00 | 0.00 | 0.00 | 55 | 1011.1 |
| 20260902041306 | 73 | 173 | 3.0 | 7.0 | 0.00 | 0.00 | 0.00 | 56 | 1011.1 |
| 20260902040804 | 73 | 152 | 5.0 | 8.0 | 0.00 | 0.00 | 0.00 | 56 | 1011.2 |
| 20260902035804 | 73 | 156 | 5.0 | 12.0 | 0.00 | 0.00 | 0.00 | 57 | 1011.1 |
| 20260902034805 | 73 | 150 | 5.0 | 9.0 | 0.00 | 0.00 | 0.00 | 58 | 1011.1 |
| 20260902034305 | 73 | 153 | 5.0 | 8.0 | 0.00 | 0.00 | 0.00 | 58 | 1011.1 |
| 20260902033805 | 73 | 153 | 5.0 | 9.0 | 0.00 | 0.00 | 0.00 | 59 | 1011.1 |
| 20260902032804 | 73 | 166 | 3.0 | 7.0 | 0.00 | 0.00 | 0.00 | 58 | 1010.6 |
| 20260902031305 | 74 | 157 | 4.0 | 6.0 | 0.00 | 0.00 | 0.00 | 55 | 1010.6 |
| 20260902030805 | 74 | 152 | 5.0 | 7.0 | 0.00 | 0.00 | 0.00 | 55 | 1010.6 |
| 20260902030304 | 74 | 135 | 6.0 | 9.0 | 0.00 | 0.00 | 0.00 | 55 | 1010.7 |
| 20260902025804 | 74 | 133 | 6.0 | 8.0 | 0.00 | 0.00 | 0.00 | 56 | 1010.5 |
| 20260902025306 | 74 | 127 | 3.0 | 8.0 | 0.00 | 0.00 | 0.00 | 56 | 1010.5 |
| 20260902024804 | 74 | 134 | 3.0 | 7.0 | 0.00 | 0.00 | 0.00 | 56 | 1010.4 |
| 20260902024305 | 74 | 126 | 4.0 | 8.0 | 0.00 | 0.00 | 0.00 | 56 | 1010.4 |
| 20260902023804 | 74 | 118 | 3.0 | 7.0 | 0.00 | 0.00 | 0.00 | 56 | 1010.5 |
| 20260902022804 | 74 | 123 | 5.0 | 8.0 | 0.00 | 0.00 | 0.00 | 56 | 1010.5 |
| 20260902021805 | 74 | 117 | 6.0 | 9.0 | 0.00 | 0.00 | 0.00 | 56 | 1010.5 |
| 20260902021304 | 75 | 124 | 5.0 | 8.0 | 0.00 | 0.00 | 0.00 | 56 | 1010.2 |
| 20260902015306 | 76 | 134 | 5.0 | 7.0 | 0.00 | 0.00 | 0.00 | 53 | 1010.2 |
| 20260902014804 | 76 | 145 | 5.0 | 10.0 | 0.00 | 0.00 | 0.00 | 54 | 1010.4 |
| 20260902014304 | 76 | 155 | 3.0 | 9.0 | 0.00 | 0.00 | 0.00 | 54 | 1010.4 |
| 20260902013804 | 76 | 140 | 3.0 | 5.0 | 0.00 | 0.00 | 0.00 | 52 | 1010.4 |
| 20260902013305 | 77 | 137 | 3.0 | 7.0 | 0.00 | 0.00 | 0.00 | 51 | 1010.5 |
| 20260902012804 | 77 | 139 | 4.0 | 7.0 | 0.00 | 0.00 | 0.00 | 50 | 1010.5 |
| 20260902012309 | 77 | 141 | 5.0 | 9.0 | 0.00 | 0.00 | 0.00 | 49 | 1010.4 |
| 20260902011804 | 77 | 140 | 6.0 | 9.0 | 0.00 | 0.00 | 0.00 | 48 | 1010.4 |
| 20260902011304 | 77 | 133 | 5.0 | 8.0 | 0.00 | 0.00 | 0.00 | 48 | 1010.4 |
| 20260902010804 | 77 | 151 | 5.0 | 9.0 | 0.00 | 0.00 | 0.00 | 48 | 1010.4 |
| 20260902010305 | 77 | 146 | 5.0 | 9.0 | 0.00 | 0.00 | 0.00 | 48 | 1010.6 |
| 20260902005804 | 77 | 144 | 3.0 | 7.0 | 0.00 | 0.00 | 0.00 | 46 | 1010.6 |
| 20260902005306 | 77 | 167 | 4.0 | 7.0 | 0.00 | 0.00 | 0.00 | 45 | 1010.8 |
| 20260902004304 | 77 | 159 | 5.0 | 9.0 | 0.00 | 0.00 | 0.00 | 44 | 1010.9 |
| 20260902003305 | 78 | 163 | 9.0 | 12.0 | 0.00 | 0.01 | 0.00 | 44 | 1011.0 |
| 20260902002804 | 78 | 160 | 5.0 | 12.0 | 0.00 | 0.02 | 0.00 | 45 | 1011.0 |
| 20260902001805 | 78 | 152 | 5.0 | 10.0 | 0.00 | 0.03 | 0.00 | 44 | 1011.1 |
| 20260902001305 | 78 | 151 | 5.0 | 12.0 | 0.00 | 0.04 | 0.00 | 44 | 1011.1 |
| 20260902000804 | 78 | 134 | 4.0 | 8.0 | 0.00 | 0.04 | 0.00 | 44 | 1010.9 |
| 20260902000305 | 78 | 151 | 6.0 | 12.0 | 0.00 | 0.04 | 0.00 | 44 | 1010.9 |
| 20260901235307 | 78 | 142 | 6.0 | 12.0 | 0.00 | 0.04 | 0.00 | 42 | 1011.0 |
| 20260901234804 | 78 | 140 | 8.0 | 12.0 | 0.00 | 0.04 | 0.00 | 42 | 1011.0 |
| 20260901234304 | 78 | 139 | 7.0 | 13.0 | 0.00 | 0.06 | 0.00 | 42 | 1011.0 |
| 20260901233804 | 79 | 150 | 9.0 | 14.0 | 0.00 | 0.06 | 0.00 | 41 | 1011.1 |
| 20260901233304 | 79 | 119 | 10.0 | 14.0 | 0.00 | 0.06 | 0.00 | 40 | 1011.1 |
| 20260901232805 | 79 | 144 | 7.0 | 13.0 | 0.00 | 0.06 | 0.00 | 40 | 1011.1 |
| 20260901231804 | 79 | 125 | 9.0 | 13.0 | 0.00 | 0.06 | 0.00 | 40 | 1011.1 |
| 20260901231304 | 79 | 136 | 6.0 | 13.0 | 0.00 | 0.06 | 0.00 | 41 | 1011.2 |
| 20260901230305 | 80 | 132 | 6.0 | 12.0 | 0.00 | 0.06 | 0.00 | 40 | 1011.1 |
| 20260901225306 | 78 | 137 | 10.0 | 13.0 | 0.00 | 0.06 | 0.00 | 40 | 1011.3 |
| 20260901224804 | 78 | 131 | 10.0 | 14.0 | 0.00 | 0.06 | 0.00 | 41 | 1011.5 |
| 20260901224304 | 78 | 139 | 7.0 | 16.0 | 0.00 | 0.06 | 0.00 | 41 | 1011.5 |
| 20260901223804 | 78 | 144 | 7.0 | 15.0 | 0.00 | 0.06 | 0.00 | 42 | 1011.6 |
| 20260901223304 | 78 | 136 | 12.0 | 16.0 | 0.00 | 0.06 | 0.00 | 42 | 1011.8 |
| 20260901222804 | 78 | 128 | 10.0 | 14.0 | 0.00 | 0.06 | 0.00 | 41 | 1011.8 |
| 20260901222306 | 79 | 124 | 12.0 | 17.0 | 0.00 | 0.06 | 0.00 | 42 | 1011.8 |
| 20260901221804 | 79 | 140 | 6.0 | 14.0 | 0.00 | 0.06 | 0.00 | 43 | 1012.0 |
| 20260901220804 | 79 | 133 | 9.0 | 16.0 | 0.00 | 0.06 | 0.00 | 43 | 1012.2 |
| 20260901220304 | 78 | 136 | 10.0 | 14.0 | 0.00 | 0.06 | 0.00 | 43 | 1012.2 |
| 20260901215804 | 78 | 138 | 7.0 | 13.0 | 0.00 | 0.06 | 0.00 | 45 | 1012.2 |
| 20260901215306 | 77 | 127 | 8.0 | 12.0 | 0.00 | 0.06 | 0.00 | 46 | 1012.4 |
| 20260901214804 | 77 | 122 | 9.0 | 13.0 | 0.00 | 0.06 | 0.00 | 47 | 1012.4 |
| 20260901214304 | 77 | 132 | 9.0 | 13.0 | 0.00 | 0.06 | 0.00 | 46 | 1012.5 |
| 20260901213804 | 77 | 130 | 6.0 | 12.0 | 0.00 | 0.06 | 0.00 | 46 | 1012.8 |
| 20260901212804 | 78 | 122 | 8.0 | 13.0 | 0.00 | 0.06 | 0.00 | 43 | 1012.9 |
| 20260901212306 | 78 | 150 | 5.0 | 12.0 | 0.00 | 0.06 | 0.00 | 45 | 1012.9 |
| 20260901211304 | 77 | 129 | 9.0 | 18.0 | 0.00 | 0.06 | 0.00 | 43 | 1013.3 |
| 20260901210804 | 77 | 141 | 10.0 | 20.0 | 0.00 | 0.06 | 0.00 | 43 | 1013.3 |
| 20260901210305 | 77 | 167 | 14.0 | 24.0 | 0.00 | 0.06 | 0.00 | 44 | 1013.3 |
| 20260901205804 | 78 | 145 | 6.0 | 13.0 | 0.00 | 0.06 | 0.00 | 44 | 1013.3 |
| 20260901204805 | 78 | 144 | 8.0 | 12.0 | 0.00 | 0.06 | 0.00 | 42 | 1013.2 |
| 20260901204304 | 79 | 127 | 7.0 | 12.0 | 0.00 | 0.06 | 0.00 | 42 | 1013.2 |
| 20260901203804 | 79 | 153 | 8.0 | 14.0 | 0.00 | 0.06 | 0.00 | 41 | 1013.2 |
| 20260901202804 | 79 | 125 | 6.0 | 12.0 | 0.00 | 0.06 | 0.00 | 45 | 1013.5 |
| 20260901202306 | 78 | 133 | 6.0 | 10.0 | 0.00 | 0.06 | 0.00 | 45 | 1013.5 |
| 20260901201304 | 79 | 128 | 6.0 | 12.0 | 0.00 | 0.06 | 0.00 | 44 | 1014.1 |
| 20260901200805 | 79 | 131 | 5.0 | 9.0 | 0.00 | 0.06 | 0.00 | 47 | 1014.1 |
| 20260901195804 | 77 | 158 | 5.0 | 10.0 | 0.00 | 0.06 | 0.00 | 48 | 1014.1 |
| 20260901195306 | 77 | 130 | 7.0 | 12.0 | 0.00 | 0.06 | 0.00 | 48 | 1014.2 |
| 20260901194804 | 76 | 132 | 7.0 | 13.0 | 0.00 | 0.06 | 0.00 | 50 | 1014.2 |
| 20260901193804 | 76 | 136 | 7.0 | 12.0 | 0.00 | 0.06 | 0.00 | 47 | 1014.4 |
| 20260901193304 | 77 | 142 | 6.0 | 15.0 | 0.00 | 0.06 | 0.00 | 48 | 1014.4 |
| 20260901192805 | 77 | 130 | 8.0 | 16.0 | 0.00 | 0.06 | 0.00 | 48 | 1014.8 |
| 20260901192306 | 77 | 121 | 9.0 | 14.0 | 0.00 | 0.06 | 0.00 | 47 | 1014.8 |
| 20260901191805 | 77 | 138 | 7.0 | 13.0 | 0.00 | 0.06 | 0.00 | 47 | 1014.8 |
| 20260901191304 | 77 | 141 | 7.0 | 13.0 | 0.00 | 0.06 | 0.00 | 48 | 1014.8 |
| 20260901190804 | 77 | 147 | 7.0 | 12.0 | 0.00 | 0.06 | 0.00 | 47 | 1014.8 |
| 20260901185804 | 77 | 118 | 5.0 | 12.0 | 0.00 | 0.06 | 0.00 | 51 | 1015.1 |
| 20260901185306 | 76 | 147 | 6.0 | 10.0 | 0.00 | 0.06 | 0.00 | 52 | 1015.1 |
| 20260901184304 | 75 | 159 | 3.0 | 6.0 | 0.00 | 0.06 | 0.00 | 55 | 1015.3 |
| 20260901183805 | 73 | 150 | 3.0 | 7.0 | 0.00 | 0.06 | 0.00 | 55 | 1015.3 |
| 20260901183304 | 73 | 172 | 2.0 | 5.0 | 0.00 | 0.06 | 0.00 | 55 | 1015.4 |
| 20260901182804 | 72 | 109 | 3.0 | 8.0 | 0.00 | 0.06 | 0.00 | 56 | 1015.4 |
| 20260901182305 | 72 | 127 | 4.0 | 8.0 | 0.00 | 0.06 | 0.00 | 56 | 1015.5 |
| 20260901181804 | 72 | 123 | 2.0 | 7.0 | 0.00 | 0.06 | 0.00 | 57 | 1015.8 |
| 20260901180805 | 71 | 164 | 3.0 | 5.0 | 0.00 | 0.06 | 0.00 | 59 | 1015.8 |
| 20260901180304 | 71 | 148 | 4.0 | 10.0 | 0.00 | 0.06 | 0.00 | 58 | 1015.8 |
| 20260901175305 | 71 | 162 | 4.0 | 6.0 | 0.00 | 0.06 | 0.00 | 59 | 1016.1 |
| 20260901174804 | 71 | 172 | 3.0 | 7.0 | 0.00 | 0.06 | 0.00 | 59 | 1016.1 |
| 20260901174304 | 71 | 188 | 5.0 | 6.0 | 0.00 | 0.06 | 0.00 | 58 | 1016.1 |
| 20260901173804 | 71 | 178 | 5.0 | 7.0 | 0.00 | 0.06 | 0.00 | 59 | 1016.0 |
| 20260901173304 | 71 | 111 | 3.0 | 7.0 | 0.00 | 0.06 | 0.00 | 59 | 1016.0 |
| 20260901172804 | 71 | 131 | 4.0 | 5.0 | 0.00 | 0.06 | 0.00 | 59 | 1016.0 |
| 20260901172305 | 71 | 113 | 2.0 | 5.0 | 0.00 | 0.06 | 0.00 | 62 | 1016.0 |
| 20260901171804 | 70 | 168 | 3.0 | 6.0 | 0.00 | 0.06 | 0.00 | 62 | 1016.0 |
| 20260901171304 | 69 | 169 | 4.0 | 6.0 | 0.00 | 0.06 | 0.00 | 62 | 1016.0 |
| 20260901170806 | 69 | 151 | 3.0 | 5.0 | 0.00 | 0.06 | 0.00 | 63 | 1016.1 |
| 20260901170304 | 69 | 118 | 5.0 | 9.0 | 0.00 | 0.06 | 0.00 | 63 | 1016.1 |
| 20260901165804 | 69 | 120 | 2.0 | 6.0 | 0.00 | 0.06 | 0.00 | 67 | 1016.1 |
| 20260901165306 | 68 | 149 | 5.0 | 12.0 | 0.00 | 0.06 | 0.00 | 66 | 1016.1 |
| 20260901164304 | 67 | 143 | 6.0 | 9.0 | 0.00 | 0.06 | 0.00 | 67 | 1016.0 |
| 20260901163804 | 66 | 136 | 6.0 | 8.0 | 0.00 | 0.06 | 0.00 | 67 | 1016.1 |
| 20260901163304 | 66 | 127 | 5.0 | 9.0 | 0.00 | 0.06 | 0.00 | 67 | 1016.0 |
| 20260901162804 | 66 | 118 | 5.0 | 8.0 | 0.00 | 0.06 | 0.00 | 66 | 1016.0 |
| 20260901162306 | 66 | 138 | 4.0 | 9.0 | 0.00 | 0.06 | 0.00 | 66 | 1016.0 |
| 20260901160804 | 66 | 157 | 7.0 | 12.0 | 0.00 | 0.06 | 0.00 | 66 | 1016.0 |
| 20260901155805 | 65 | 134 | 7.0 | 12.0 | 0.00 | 0.06 | 0.00 | 68 | 1015.9 |
| 20260901154804 | 65 | 134 | 5.0 | 8.0 | 0.00 | 0.06 | 0.00 | 71 | 1016.1 |
| 20260901154305 | 65 | 111 | 7.0 | 9.0 | 0.00 | 0.06 | 0.00 | 72 | 1016.1 |
| 20260901153804 | 65 | 146 | 4.0 | 6.0 | 0.00 | 0.06 | 0.00 | 73 | 1016.1 |
| 20260901153304 | 64 | 139 | 3.0 | 7.0 | 0.00 | 0.06 | 0.00 | 75 | 1016.1 |
| 20260901152804 | 64 | 121 | 3.0 | 6.0 | 0.00 | 0.06 | 0.00 | 75 | 1016.2 |
| 20260901152306 | 63 | 89 | 2.0 | 5.0 | 0.00 | 0.06 | 0.00 | 76 | 1016.1 |
| 20260901151804 | 62 | 121 | 0.0 | 1.0 | 0.00 | 0.06 | 0.00 | 77 | 1016.1 |
| 20260901150804 | 62 | 91 | 3.0 | 6.0 | 0.00 | 0.06 | 0.00 | 76 | 1016.1 |
| 20260901150304 | 62 | 77 | 1.0 | 5.0 | 0.00 | 0.06 | 0.00 | 76 | 1016.1 |
| 20260901145805 | 62 | 91 | 2.0 | 5.0 | 0.00 | 0.06 | 0.00 | 76 | 1016.1 |
| 20260901145306 | 62 | 95 | 3.0 | 7.0 | 0.00 | 0.06 | 0.00 | 78 | 1016.1 |
| 20260901144304 | 61 | 97 | 1.0 | 3.0 | 0.00 | 0.06 | 0.00 | 80 | 1015.9 |
| 20260901143805 | 61 | 134 | 1.0 | 5.0 | 0.00 | 0.06 | 0.00 | 81 | 1015.9 |
| 20260901143304 | 60 | 110 | 2.0 | 7.0 | 0.00 | 0.06 | 0.00 | 81 | 1016.0 |
| 20260901142804 | 60 | 115 | 2.0 | 5.0 | 0.00 | 0.06 | 0.00 | 81 | 1015.9 |
| 20260901142306 | 60 | 112 | 2.0 | 6.0 | 0.00 | 0.06 | 0.00 | 81 | 1015.9 |
| 20260901141804 | 60 | 94 | 3.0 | 6.0 | 0.00 | 0.06 | 0.00 | 81 | 1015.9 |
| 20260901140304 | 59 | 107 | 3.0 | 6.0 | 0.00 | 0.06 | 0.00 | 82 | 1015.6 |
| 20260901135804 | 59 | 155 | 3.0 | 6.0 | 0.00 | 0.06 | 0.00 | 82 | 1015.6 |
| 20260901135305 | 59 | 140 | 2.0 | 3.0 | 0.00 | 0.06 | 0.00 | 82 | 1015.6 |
| 20260901134803 | 59 | 117 | 1.0 | 3.0 | 0.00 | 0.06 | 0.00 | 82 | 1015.5 |
| 20260901134304 | 59 | 115 | 2.0 | 3.0 | 0.00 | 0.06 | 0.00 | 82 | 1015.5 |
| 20260901133804 | 59 | 131 | 3.0 | 5.0 | 0.00 | 0.06 | 0.00 | 82 | 1015.5 |
| 20260901133304 | 59 | 130 | 2.0 | 3.0 | 0.00 | 0.06 | 0.00 | 82 | 1015.4 |
| 20260901132804 | 59 | 147 | 1.0 | 2.0 | 0.00 | 0.06 | 0.00 | 82 | 1015.4 |
| 20260901132307 | 59 | 110 | 1.0 | 2.0 | 0.00 | 0.06 | 0.00 | 82 | 1015.4 |
| 20260901131804 | 59 | 92 | 0.0 | 0.0 | 0.00 | 0.06 | 0.00 | 82 | 1015.4 |
| 20260901131304 | 59 | 92 | 0.0 | 0.0 | 0.00 | 0.06 | 0.00 | 82 | 1015.4 |
| 20260901130803 | 59 | 92 | 0.0 | 3.0 | 0.00 | 0.06 | 0.00 | 82 | 1015.4 |
| 20260901125804 | 59 | 171 | 1.0 | 3.0 | 0.00 | 0.06 | 0.00 | 82 | 1015.2 |
| 20260901125308 | 59 | 152 | 0.0 | 5.0 | 0.00 | 0.06 | 0.00 | 82 | 1015.2 |
| 20260901124804 | 59 | 117 | 0.0 | 3.0 | 0.00 | 0.06 | 0.00 | 82 | 1015.3 |
| 20260901124304 | 59 | 113 | 0.0 | 3.0 | 0.00 | 0.06 | 0.00 | 82 | 1015.3 |
| 20260901123804 | 59 | 94 | 2.0 | 3.0 | 0.00 | 0.06 | 0.00 | 82 | 1015.3 |
| 20260901123304 | 59 | 82 | 1.0 | 3.0 | 0.00 | 0.06 | 0.00 | 82 | 1015.3 |
| 20260901122804 | 59 | 205 | 1.0 | 3.0 | 0.00 | 0.06 | 0.00 | 82 | 1015.3 |
| 20260901122306 | 59 | 115 | 2.0 | 3.0 | 0.00 | 0.06 | 0.00 | 82 | 1015.3 |
| 20260901121804 | 59 | 138 | 2.0 | 3.0 | 0.00 | 0.06 | 0.00 | 82 | 1015.3 |
| 20260901120804 | 59 | 142 | 3.0 | 6.0 | 0.00 | 0.06 | 0.00 | 83 | 1015.3 |
| 20260901120304 | 58 | 154 | 3.0 | 5.0 | 0.00 | 0.06 | 0.00 | 84 | 1015.3 |
| 20260901115804 | 58 | 139 | 2.0 | 3.0 | 0.00 | 0.06 | 0.00 | 84 | 1015.3 |
| 20260901115306 | 58 | 93 | 2.0 | 3.0 | 0.00 | 0.06 | 0.00 | 83 | 1015.4 |
| 20260901114804 | 58 | 93 | 2.0 | 5.0 | 0.00 | 0.06 | 0.00 | 83 | 1015.1 |
| 20260901114304 | 58 | 104 | 0.0 | 0.0 | 0.00 | 0.06 | 0.00 | 83 | 1015.1 |
| 20260901113804 | 58 | 104 | 0.0 | 0.0 | 0.00 | 0.06 | 0.00 | 83 | 1015.1 |
| 20260901113304 | 58 | 104 | 0.0 | 0.0 | 0.00 | 0.06 | 0.00 | 83 | 1015.1 |
| 20260901112804 | 58 | 104 | 0.0 | 0.0 | 0.00 | 0.06 | 0.00 | 83 | 1015.0 |
| 20260901112306 | 58 | 104 | 0.0 | 0.0 | 0.00 | 0.06 | 0.00 | 83 | 1015.0 |
| 20260901111804 | 58 | 104 | 1.0 | 2.0 | 0.00 | 0.06 | 0.00 | 83 | 1015.0 |
| 20260901111304 | 58 | 151 | 0.0 | 0.0 | 0.00 | 0.06 | 0.00 | 83 | 1015.1 |
| 20260901105803 | 58 | 159 | 0.0 | 0.0 | 0.00 | 0.06 | 0.00 | 83 | 1015.2 |
| 20260901105305 | 58 | 234 | 0.0 | 0.0 | 0.00 | 0.06 | 0.00 | 82 | 1015.2 |
| 20260901104804 | 58 | 234 | 0.0 | 0.0 | 0.00 | 0.06 | 0.00 | 82 | 1015.3 |
| 20260901104304 | 58 | 234 | 0.0 | 0.0 | 0.00 | 0.06 | 0.00 | 82 | 1015.3 |
| 20260901103804 | 58 | 110 | 0.0 | 1.0 | 0.00 | 0.06 | 0.00 | 82 | 1015.3 |
| 20260901103304 | 58 | 110 | 2.0 | 5.0 | 0.00 | 0.06 | 0.00 | 82 | 1015.3 |
| 20260901102804 | 58 | 93 | 3.0 | 6.0 | 0.00 | 0.06 | 0.00 | 82 | 1015.3 |
| 20260901102306 | 58 | 94 | 5.0 | 6.0 | 0.00 | 0.06 | 0.00 | 82 | 1015.3 |
| 20260901101804 | 58 | 106 | 3.0 | 5.0 | 0.00 | 0.06 | 0.00 | 82 | 1015.3 |
| 20260901101304 | 58 | 99 | 2.0 | 5.0 | 0.00 | 0.06 | 0.00 | 82 | 1015.4 |
| 20260901095803 | 58 | 36 | 1.0 | 3.0 | 0.00 | 0.06 | 0.00 | 82 | 1015.4 |
| 20260901095306 | 59 | 37 | 0.0 | 1.0 | 0.00 | 0.06 | 0.00 | 82 | 1015.4 |
| 20260901094804 | 59 | 119 | 0.0 | 0.0 | 0.00 | 0.06 | 0.00 | 81 | 1015.3 |
| 20260901094304 | 59 | 119 | 0.0 | 0.0 | 0.00 | 0.06 | 0.00 | 81 | 1015.3 |
| 20260901093304 | 59 | 119 | 0.0 | 2.0 | 0.00 | 0.06 | 0.00 | 81 | 1015.3 |
| 20260901092804 | 59 | 119 | 2.0 | 5.0 | 0.00 | 0.06 | 0.00 | 81 | 1015.2 |
| 20260901092305 | 59 | 107 | 2.0 | 5.0 | 0.00 | 0.06 | 0.00 | 81 | 1015.2 |
| 20260901091804 | 59 | 115 | 1.0 | 3.0 | 0.00 | 0.06 | 0.00 | 81 | 1015.2 |
| 20260901091304 | 59 | 104 | 2.0 | 3.0 | 0.00 | 0.06 | 0.00 | 81 | 1015.2 |
| 20260901090804 | 59 | 123 | 3.0 | 6.0 | 0.00 | 0.06 | 0.00 | 81 | 1015.2 |